Location: Borowce
(50.8255°N, 19.6209°E)
Time: 08:02:20
(UTC+00:00)

SL-14 R/B - Pass Details

Date: 19 May 2025
Orbit: 501 x 530 km, 82.4° (Epoch: 16 June)

Event Time Altitude Azimuth Distance (km) Brightness Sun altitude
Exits shadow 23:54:04 35° 233° (SW) 859 3.9 -17.2°
Maximum altitude 23:55:17 49° 284° (WNW) 676 3.7 -17.2°
Drops below altitude 10° 23:59:05 10° 1° (N) 1,773 7.0 -17.0°
Sets 00:01:18 0° 7° (N) 2,671 8.4 -16.9°
